Regional Weather Roundup
Issued by NWS Jackson, KY

Home | Current Version | Previous Version | Graphics & Text | Print | Product List | Glossary On
Versions: 1 2 3 4 5 6 7 8 9 10 11 12 13 14 15 16 17 18 19 20 21 22 23 24 25 26 27 28 29 30 31 32 33 34 35 36 37 38 39 40 41 42 43 44 45 46 47 48 49 50
000
ASUS43 KJKL 311210
RWRJKL

EAST KENTUCKY HOURLY WEATHER ROUNDUP
NATIONAL WEATHER SERVICE JACKSON KY
800 AM EDT FRI OCT 31 2014

NOTE: "FAIR" INDICATES FEW OR NO CLOUDS BELOW 12,000 FEET WITH
NO SIGNIFICANT WEATHER AND/OR OBSTRUCTIONS TO VISIBILITY.

* THESE REPORTS ARE NOT UNDER NWS QUALITY CONTROL AND MAY NOT
  REPORT WEATHER SUCH AS PRECIPITATION AND FOG.

KYZ079-080-083-085-087-088-110-112-115-119-120-311300
...EASTERN KENTUCKY...

CITY           SKY/WX    TMP DP  RH WIND       PRES   REMARKS
JACKSON        CLOUDY    40  36  86 CALM      29.97S
6HR MIN TEMP:  40; 6HR MAX TEMP:  41;

LONDON         CLOUDY    42  38  85 CALM      29.98S
6HR MIN TEMP:  39; 6HR MAX TEMP:  43; 6HR PCP: TRACE;

SOMERSET*      RAIN      41  41 100 CALM      30.00F
MONTICELLO*    LGT RAIN  44  42  93 CALM      30.01S FOG
6HR MIN TEMP:  38; 6HR MAX TEMP:  44; 6HR PCP:  0.01;

WILLIAMSBURG*  MOCLDY    37  37 100 MISG      29.99S
MIDDLESBORO*   CLOUDY    37  37 100 CALM      29.99S
6HR MIN TEMP:  35; 6HR MAX TEMP:  37;

HARLAN APT*    CLOUDY    37  37 100 CALM      29.97S
BLACK MTN*       N/A     36  34  93 CALM        N/A
PIKEVILLE APT* CLOUDY    36  36 100 CALM      29.97R FOG
BIG SANDY*     CLOUDY    38  37  98 CALM      29.97S
6HR MIN TEMP:  35; 6HR MAX TEMP:  38;

MOREHEAD APT*  LGT RAIN  41  37  87 CALM      30.00S
$$

KYZ035-036-041-042-044-050-067-078-099-311300
...CENTRAL KENTUCKY...

CITY           SKY/WX    TMP DP  RH WIND       PRES   REMARKS
MT STERLING*   RAIN      41  41 100 SW3       30.00S
FLEMING/MASON* DRIZZLE   39  37  93 CALM      30.00S
DANVILLE*      LGT RAIN  41  41 100 CALM      30.00S
RICHMOND*      CLOUDY    41  39  93 CALM      29.98S
LEXINGTON      LGT RAIN  46  42  86 CALM      29.98F
6HR MIN TEMP:  43; 6HR MAX TEMP:  46; 6HR PCP:  0.03;

FRANKFORT      CLOUDY    43  41  93 CALM      29.99S FOG
6HR MIN TEMP:  42; 6HR MAX TEMP:  44; 6HR PCP:  0.05;

$$

KYZ091>093-OHZ055-061-077-WVZ005-015-034-035-042-311300
...SOUTHERN OHIO/WEST VIRGINIA...

CITY           SKY/WX    TMP DP  RH WIND       PRES   REMARKS
COVINGTON      CLOUDY    44  40  85 W3        29.97F
COLUMBUS       CLOUDY    41  36  82 CALM      29.96F
DAYTON         CLOUDY    43  37  79 SW6       29.96F
WILMINGTON     CLOUDY    40  37  89 S3        29.96F
HUNTINGTON     CLOUDY    37  36  96 CALM      29.97F
CHARLESTON     FOG       33  32  96 SE3       29.98S VSB 1
PINEVILLE*     FOG       33  33 100 MISG      30.01S VSB 3/4
BECKLEY        MOCLDY    32  28  85 CALM      29.94S
BLUEFIELD      CLOUDY    41  32  70 CALM      29.94F
$$

VAZ002-007-008-TNZ017-027-036-066-071-311300
...SOUTHWEST VIRGINIA/EAST TENNESSEE...

CITY           SKY/WX    TMP DP  RH WIND       PRES   REMARKS
WISE*          CLOUDY    37  32  81 CALM      29.95S
JONESVILLE*    PTSUNNY   36  36 100 CALM      30.00R FOG
ABINGDON*      CLEAR     36  34  94 E5        29.95S WCI  32
BRISTOL        FOG       34  34 100 NE3       29.97S VSB 1/4
KNOXVILLE      MOCLDY    40  38  93 CALM      29.97F
OAK RIDGE      CLOUDY    41  39  93 CALM      29.99F
CROSSVILLE     CLOUDY    44  39  82 CALM      29.97S
NASHVILLE      CLOUDY    50  45  83 CALM      30.00R
$$

...KEY TO REMARKS...
VSB - VISIBILITY IN MILES
WCI - WIND CHILL INDEX
HX  - HEAT INDEX

$$



USA.gov is the U.S. government's official web portal to all federal, state and local government web resources and services.